Flag for U.S.A. Weather past 2 weeks in Columbus, Georgia, U.S.A.

Now
82 °F

Sunny.


Feels Like: 89 °F
Forecast: 71 / 90 °F
Wind: 3 mph from Northeast

Location: Columbus Metropolitan Airport

Current Time: Aug 30, 2014 at 7:24:55 PM

Latest Report: Aug 30, 2014 at 6:51 PM


Visibility: 10 mi

Pressure: 30.03 "Hg

Humidity: 79%

Dew point: 75 °F

Location of ColumbusLocation

Historic Weather in Columbus — Graph

°F

Columbus temperature yesterday

Maximum temperature yesterday: 94 °F (at 5:51 PM)
Minimum temperature yesterday: 66 °F (at 6:51 AM)
Average temperature yesterday: 81 °F

Past Weeks' High & Low Weather Summary

 TemperatureHumidityPressure
High97 °F (Aug 22, 4:51 PM)97% (Aug 18, 2:51 AM)30.13 "Hg (Aug 18, 2:51 AM)
Low66 °F (Aug 29, 6:51 AM)20% (Aug 28, 3:51 PM)29.85 "Hg (Aug 24, 5:51 PM)
Average81 °F66%30.00 "Hg
* Reported Aug 15 6:51 PM — Aug 30 6:04 PM, Columbus, Weather by CustomWeather, © 2014

Note: Actual official high and low records may vary slightly from our data, if they occured in-between our weather recording intervals... More about our weather records

Advertising

Columbus weather history for previous 24 hours

 ConditionsComfort  
Time TempWeatherWind HumidityBarometerVisibility
6:04 PM
Aug 30
81 °FHeavy rain. Partly sunny.29 mph79%30.11 "Hg1 mi
5:51 PM87 °FBroken clouds.17 mph61%30.03 "Hg10 mi
4:51 PM94 °FPartly sunny.10 mph46%30.01 "Hg10 mi
3:51 PM94 °FSunny.9 mph41%30.02 "Hg10 mi
2:51 PM94 °FScattered clouds.9 mph43%30.05 "Hg10 mi
1:51 PM93 °FPassing clouds.8 mph46%30.08 "Hg10 mi
12:51 PM90 °FPartly sunny.8 mph52%30.10 "Hg10 mi
11:51 AM87 °FScattered clouds.3 mph61%30.11 "Hg10 mi
10:51 AM84 °FPassing clouds.No wind70%30.12 "Hg10 mi
9:51 AM79 °FOvercast.5 mph84%30.12 "Hg10 mi
8:51 AM76 °FOvercast.3 mph88%30.12 "Hg10 mi
7:51 AM75 °FOvercast.No wind88%30.11 "Hg10 mi
6:59 AM73 °FPassing clouds.No wind94%30.12 "Hg10 mi
5:51 AM75 °FClear.No wind85%30.08 "Hg10 mi
4:51 AM75 °FClear.5 mph85%30.08 "Hg10 mi
3:51 AM77 °FClear.No wind77%30.07 "Hg10 mi
2:51 AM78 °FClear.No wind74%30.07 "Hg10 mi
1:51 AM80 °FClear.No wind67%30.07 "Hg10 mi
12:51 AM81 °FPassing clouds.No wind67%30.07 "Hg10 mi
11:51 PM
Aug 29
83 °FMostly cloudy.6 mph61%30.06 "Hg10 mi
10:51 PM84 °FMostly cloudy.6 mph59%30.06 "Hg10 mi
9:51 PM85 °FOvercast.6 mph61%30.03 "Hg10 mi
8:51 PM88 °FPassing clouds.No wind40%29.99 "Hg10 mi
7:51 PM89 °FSunny.3 mph38%29.96 "Hg10 mi
Weather by CustomWeather, © 2014

See weather overviewHow to use our weather pages